Lapse_Rate
1.9 1.5 1.3 1.1 1.0 0.9 1.2 1.6 1.8 1.6 1.5 1.1 0.5 0.5 1.2 1.3 1.5 1.7 2.1 2.3 3.6 5.0 4.7 4.5 5.2 5.3 5.3 4.9 5.1 4.9 5.0 5.2 4.9 4.8 4.8 4.8 5.3 6.5 6.5 6.3 6.4 6.5 6.7
1.6 1.7 1.8 1.7 1.5 1.1 1.0 1.0 1.4 2.1 2.3 2.4 1.9 1.6 1.6 1.3 1.9 2.1 1.8 1.0 1.4 1.8 3.1 3.1 3.3 3.6 4.3 4.7 4.6 4.4 4.2 4.0 4.3 4.1 4.2 4.6 4.7 5.0 5.9 6.5 6.5 6.5 6.5
1.8 1.9 2.2 2.2 1.6 1.4 1.8 2.0 1.7 1.8 2.3 2.9 3.4 2.7 2.5 2.4 2.1 1.6 2.1 1.9 1.7 0.9 -0.2 1.1 1.5 2.0 2.7 3.4 3.8 3.9 3.7 3.6 3.9 4.3 4.5 3.9 4.4 4.9 5.0 5.6 5.9 6.5 6.7
2.0 2.2 2.1 1.6 1.1 1.5 2.1 2.5 3.3 3.6 3.4 3.3 3.0 2.9 3.0 3.0 2.9 2.8 2.8 2.4 1.9 1.8 0.8 -0.1 0.6 0.9 1.6 1.9 2.6 3.0 2.9 3.1 3.5 3.7 4.2 4.9 4.8 4.5 5.0 5.0 5.1 5.4 6.0
1.8 2.5 2.3 2.0 2.2 2.5 2.8 3.4 3.3 3.9 4.3 4.8 4.4 4.2 3.9 3.8 3.8 4.0 3.7 3.1 2.2 1.9 1.8 0.6 -0.1 -0.0 0.8 1.6 2.0 2.6 2.9 2.7 3.2 3.7 3.6 4.0 4.6 4.9 5.0 4.6 4.2 4.8 5.1
2.2 2.5 2.3 2.3 2.7 3.6 4.1 4.1 4.4 4.0 3.8 4.4 5.1 5.2 4.8 4.7 4.6 4.4 4.4 4.0 3.3 3.0 2.6 2.2 2.3 1.8 0.7 1.1 1.7 2.6 2.6 2.7 2.8 3.6 4.0 3.9 3.7 4.0 4.6 4.7 4.5 3.9 3.7
2.9 3.2 3.3 3.2 3.1 3.5 3.6 4.1 4.8 5.2 4.7 4.5 7.1 7.4 6.6 6.0 6.2 5.8 5.3 4.9 4.3 3.8 3.4 3.1 3.0 2.8 2.5 1.5 1.1 2.1 2.9 3.8 3.8 4.2 5.4 5.0 3.8 3.8 3.9 4.3 4.2 4.0 3.8
3.5 4.0 4.3 4.3 4.0 4.0 3.8 4.1 4.5 5.1 4.7 4.6 8.1 8.7 8.4 8.1 7.5 6.4 6.5 6.2 5.7 5.2 4.6 3.8 3.3 3.0 2.9 2.9 1.5 2.0 2.5 3.2 4.2 5.0 5.6 5.9 5.2 4.4 3.7 3.9 3.3 3.6 3.3
4.3 4.3 4.3 4.6 4.5 4.7 4.8 4.5 4.6 4.7 5.6 4.9 4.7 7.0 8.1 7.8 8.6 7.0 6.5 6.4 6.4 6.5 5.7 4.8 3.9 3.3 3.3 3.4 3.2 3.0 2.6 3.1 4.1 4.7 5.1 5.4 5.0 4.2 4.2 4.4 4.1 3.3 3.3
4.8 4.6 4.6 5.0 5.2 5.1 5.2 5.0 4.8 5.2 5.7 5.9 5.7 5.4 5.5 6.0 8.2 8.0 7.8 6.8 6.6 6.6 6.2 5.8 5.2 4.3 4.0 3.8 2.5 2.2 2.5 3.4 3.7 4.1 5.4 5.7 5.7 5.6 5.1 5.1 4.2 4.0 2.9
5.1 5.1 5.3 5.4 5.6 5.8 5.6 5.5 5.3 5.5 5.7 6.2 6.2 6.0 6.1 6.2 6.0 8.2 8.0 8.7 8.7 7.0 6.4 6.2 5.9 5.7 4.7 4.4 4.5 3.6 2.4 3.0 3.5 3.7 4.5 5.6 7.0 7.5 7.4 7.1 5.5 4.0 2.8
5.3 5.3 5.5 6.0 5.9 6.0 6.1 6.0 5.6 5.6 5.7 5.8 5.9 5.9 6.3 8.0 8.7 8.6 8.3 8.6 8.4 8.2 6.9 6.4 6.7 6.6 5.9 5.7 4.8 3.6 3.3 3.2 3.1 3.5 4.4 6.2 8.1 7.6 5.4 4.8 4.2 4.0 3.4
5.3 5.6 5.4 5.7 6.1 5.9 5.8 5.9 6.1 6.1 6.0 6.3 6.3 6.8 6.6 6.9 6.8 7.2 7.8 8.7 8.6 9.0 7.2 7.5 6.9 6.9 6.9 6.7 6.3 4.7 4.7 4.4 4.1 4.0 4.5 5.4 5.6 4.1 3.7 3.7 3.9 3.8 3.9
4.8 4.5 4.9 5.0 4.9 4.9 4.9 5.0 5.6 6.1 6.2 6.7 6.5 6.6 7.2 7.6 8.0 8.5 9.0 8.7 8.4 8.7 9.1 9.1 8.3 7.1 7.1 6.6 5.5 4.8 5.7 5.2 4.7 4.9 4.9 4.8 4.6 4.1 3.6 3.3 3.4 3.5 3.7
4.1 4.3 4.6 4.9 4.9 4.8 4.9 5.1 5.8 6.1 6.0 6.5 6.8 6.8 7.0 8.1 7.9 8.4 8.6 9.2 8.8 8.0 8.3 9.0 8.9 7.8 7.2 6.8 6.5 5.7 5.6 5.5 4.7 4.9 5.4 5.3 5.1 4.9 4.8 4.3 3.7 3.4 3.3
4.4 4.2 4.3 4.6 4.7 5.0 5.2 5.5 6.0 5.8 6.1 6.8 6.9 7.3 7.5 8.2 8.2 8.8 9.1 9.6 9.4 8.9 8.3 9.0 9.4 9.8 8.2 7.0 6.9 6.3 6.3 5.2 5.0 5.2 5.1 5.1 5.2 5.4 5.4 5.4 5.4 5.0 4.7
4.5 4.7 4.7 4.9 5.1 5.4 5.5 5.8 6.2 6.3 6.2 6.6 6.9 6.9 7.0 7.6 7.7 9.0 9.4 9.5 9.4 9.4 8.6 9.0 9.6 9.6 8.7 8.0 7.6 7.5 6.9 6.4 6.2 5.9 5.7 5.5 5.4 5.4 5.5 5.7 5.7 5.6 5.6
4.9 5.1 5.1 5.3 5.5 5.6 5.9 6.2 6.3 6.3 6.4 6.5 6.9 6.8 7.0 7.6 7.5 8.9 9.2 9.3 9.4 9.5 9.1 8.7 9.1 9.4 9.6 9.4 7.8 7.6 7.3 7.1 6.9 6.7 6.2 5.8 5.6 5.6 6.0 6.2 6.3 6.1 5.6
5.1 5.3 5.8 6.0 6.1 6.5 6.5 6.7 6.6 6.5 6.7 6.8 6.9 6.7 6.9 7.3 7.2 8.0 9.4 9.4 9.5 9.5 9.2 8.7 8.0 8.3 9.2 9.8 9.6 9.4 8.8 8.5 7.8 7.0 6.2 5.6 5.6 6.0 6.3 6.5 6.4 6.2 6.0
5.0 5.6 5.9 6.0 6.3 6.3 6.1 6.4 6.4 6.6 7.0 6.9 7.1 7.2 7.3 7.7 8.1 9.0 9.4 9.4 9.4 9.2 9.0 8.5 8.3 8.0 9.0 9.4 9.6 9.2 9.2 9.8 9.8 9.6 9.2 6.9 6.1 6.3 6.4 6.5 6.6 6.4 6.2
4.7 5.3 5.7 6.1 6.1 6.1 6.2 6.7 6.7 6.9 7.6 7.7 8.2 8.7 8.3 8.7 8.5 9.1 9.3 9.3 9.3 9.1 9.1 8.8 8.5 8.8 8.8 8.9 8.9 9.2 9.0 9.4 9.6 9.8 9.9 9.7 9.5 9.2 7.2 6.2 5.9 5.5 5.7
5.1 4.3 4.9 4.8 5.2 5.9 6.1 6.4 7.3 8.9 8.2 7.6 8.2 9.1 9.3 9.1 9.0 9.3 9.2 8.6 8.1 6.8 7.6 7.9 8.7 8.4 8.8 9.3 9.3 9.1 9.1 8.8 8.5 9.7 9.8 9.5 9.7 9.7 9.6 9.4 7.2 6.3 6.1
4.7 4.8 4.2 4.5 4.3 5.5 5.9 6.6 8.2 9.5 9.2 9.1 8.9 9.1 9.3 9.4 9.3 9.5 9.4 9.3 9.1 9.1 9.0 7.6 7.4 7.8 7.6 9.0 9.0 8.9 9.1 9.3 9.2 9.7 9.4 8.7 9.5 9.4 9.8 9.7 9.4 7.2 6.4
4.9 5.2 5.4 5.0 5.0 5.4 6.0 6.9 9.1 9.3 9.0 9.3 9.1 8.9 8.8 9.2 9.6 9.6 9.4 9.3 9.5 9.7 9.8 10.1 9.6 9.3 9.5 9.6 9.5 9.5 9.5 9.4 9.6 9.5 8.9 8.2 9.3 9.3 9.9 9.7 9.5 9.4 8.7
6.2 5.5 5.3 5.1 4.5 4.7 5.8 6.7 9.2 9.3 9.3 9.3 9.3 9.6 9.6 9.6 9.7 9.6 9.2 8.5 8.8 9.5 9.5 9.4 9.3 9.3 9.2 8.9 8.0 8.2 8.0 8.5 8.3 8.9 9.7 9.5 9.3 9.7 10.1 10.0 9.5 9.3 8.5
5.9 6.3 6.0 6.0 5.5 5.3 6.2 7.2 9.4 9.1 8.9 9.2 9.5 9.7 9.7 9.5 9.6 9.5 9.0 8.3 7.7 8.8 9.1 9.4 9.7 9.7 9.4 9.5 9.4 9.4 9.1 8.5 8.7 8.5 9.5 9.3 9.5 9.4 8.7 9.5 9.4 9.4 9.5
Wind_Speed
7 7 8 7 7 7 7 7 7 7 8 8 9 8 7 7 7 7 11 15 13 16 18 22 21 21 20 20 18 17 16 14 14 11 12 4 2 8 11 11 11 9 9
8 7 7 7 7 7 7 7 7 6 6 6 7 7 7 7 9 8 7 13 19 17 17 18 19 19 18 17 16 17 17 17 14 14 14 14 9 1 5 10 12 12 11
9 9 7 7 7 6 7 6 7 7 5 5 6 6 7 8 9 9 6 5 8 17 16 17 18 18 17 17 16 16 16 15 14 12 12 14 13 12 4 4 8 12 14
8 7 7 7 6 6 6 6 5 4 4 4 4 4 7 7 9 8 7 6 6 5 11 14 16 16 16 15 15 14 14 13 13 13 14 14 15 13 14 10 3 5 11
8 8 7 6 5 6 6 5 5 4 4 4 4 4 5 5 7 7 8 8 8 8 6 8 11 15 14 14 14 14 13 13 13 11 12 14 15 13 16 16 17 10 4
8 8 8 7 5 5 4 5 5 5 4 3 4 4 4 5 5 5 6 7 7 7 7 7 6 7 12 13 13 13 12 11 11 10 10 12 12 14 12 14 16 17 15
8 7 6 6 5 4 5 4 3 4 5 2 4 4 3 3 4 3 4 4 6 5 6 6 6 6 6 9 13 14 13 12 10 10 8 9 11 12 13 14 14 15 15
7 6 6 5 5 4 4 5 5 3 4 4 0 2 4 3 3 2 2 2 3 4 3 6 6 6 5 6 8 11 13 12 11 10 9 10 9 9 11 11 12 13 13
6 7 7 6 5 4 3 4 5 5 3 4 6 3 2 1 2 2 3 1 2 2 3 4 5 4 4 4 5 7 12 11 11 11 10 9 9 10 10 10 11 11 13
8 7 7 6 5 3 3 3 4 4 3 3 2 4 4 3 2 2 3 2 2 2 3 4 2 2 3 3 4 7 10 10 11 11 10 9 8 9 10 10 11 11 12
8 7 7 6 5 4 3 2 2 2 2 2 2 2 2 2 2 2 2 1 2 2 2 5 2 0 1 3 3 6 8 10 10 10 11 10 10 9 9 10 10 12 13
8 7 6 5 5 5 5 4 2 1 0 1 1 1 2 2 2 2 3 4 5 3 5 2 2 1 1 1 3 7 9 11 10 11 11 10 10 11 12 12 12 13 13
5 7 8 6 5 5 4 4 3 2 2 2 2 2 2 2 3 3 4 4 4 3 3 3 2 2 2 2 3 9 9 7 10 11 12 12 12 13 13 14 14 14 13
7 11 9 8 7 6 5 4 3 3 3 3 4 3 3 3 4 4 5 4 5 4 5 6 3 3 3 5 9 11 8 9 10 12 12 13 13 13 14 14 15 15 14
9 9 9 8 6 5 4 3 3 3 3 4 4 5 5 4 4 5 5 5 5 4 4 2 2 2 5 8 11 13 13 12 14 15 15 14 14 14 14 14 15 17 17
10 10 9 7 7 5 5 5 4 4 4 3 4 5 5 5 5 5 5 6 6 7 6 4 4 6 10 13 12 13 13 15 16 15 15 15 15 16 16 16 16 16 17
8 8 7 7 6 5 5 4 4 4 5 5 5 6 6 6 5 5 5 6 7 7 8 9 8 10 12 11 13 12 13 14 14 15 15 17 17 18 18 19 18 19 18
8 7 7 6 5 5 5 5 5 5 6 6 6 7 7 5 8 7 6 8 8 8 8 12 10 9 11 12 14 13 13 13 14 15 16 18 19 20 20 21 21 21 20
7 7 6 6 6 6 5 6 6 6 7 7 7 7 7 8 8 7 8 7 7 7 8 8 11 9 9 8 9 11 12 13 15 16 16 18 20 20 20 21 22 22 22
5 5 6 5 5 5 5 6 6 7 7 7 7 8 8 8 9 9 9 9 9 9 9 9 8 11 10 10 8 9 9 8 8 14 15 17 19 21 22 23 23 24 25
5 5 5 5 5 5 5 6 6 8 8 9 9 9 10 13 16 15 8 10 11 10 10 9 9 9 10 10 10 8 9 10 10 11 10 12 13 14 14 16 19 22 23
4 4 4 4 5 5 9 11 12 9 9 10 11 11 12 15 16 20 22 24 17 12 13 11 10 11 14 11 10 9 9 10 11 15 10 9 12 9 16 18 20 22 24
2 3 4 5 7 8 12 14 15 10 11 11 11 11 11 10 15 13 18 20 21 23 22 12 11 10 11 11 10 12 13 12 12 10 9 11 9 12 17 20 22 24 26
4 5 7 7 8 8 13 14 16 11 11 12 12 12 12 13 13 13 14 14 15 15 14 11 14 13 13 15 13 12 14 14 13 10 12 12 9 12 12 18 24 27 28
6 7 7 8 8 8 14 15 14 11 12 13 11 13 13 13 17 19 13 13 16 15 21 25 27 29 30 28 25 10 10 11 11 10 9 10 10 12 11 12 20 26 28
6 6 7 8 11 11 15 16 14 9 11 10 12 13 18 16 20 20 14 13 13 14 13 15 14 19 25 23 24 16 9 10 11 13 11 11 10 10 12 10 9 15 16
Wind_Direction
94 89 81 73 67 63 59 64 55 58 60 59 60 63 60 67 80 86 70 44 41 52 49 43 48 65 61 58 66 61 58 63 61 70 59 63 278 238 212 207 203 207 214
105 95 85 74 66 59 62 64 64 65 63 62 66 70 79 77 79 94 81 56 48 53 49 41 45 47 49 52 53 57 51 43 45 52 54 58 51 66 252 237 222 216 219
116 118 115 105 89 73 63 60 59 67 82 78 80 83 78 77 84 79 82 78 63 54 45 39 41 40 38 45 40 45 45 42 36 41 46 50 54 54 84 245 253 236 230
109 102 92 81 77 78 77 69 53 70 61 58 72 66 78 86 80 78 80 69 64 60 53 43 41 37 34 35 33 36 35 35 36 38 45 47 53 53 58 60 44 269 251
113 106 100 93 86 81 73 77 72 57 86 90 94 95 88 93 90 92 81 67 61 55 51 52 47 43 36 34 30 30 27 27 29 31 35 44 47 48 50 56 54 48 44
116 112 108 104 97 90 85 78 82 72 69 89 113 109 93 90 100 86 86 72 63 50 41 38 39 45 40 37 32 29 24 22 21 20 36 40 39 36 44 48 50 50 45
115 107 101 93 81 76 69 62 72 70 74 92 141 127 134 112 124 110 94 79 57 51 40 34 29 29 29 38 33 24 21 25 25 22 21 22 26 28 32 35 39 41 41
126 120 115 98 81 79 65 51 39 71 76 33 101 201 176 165 177 162 141 111 60 38 34 26 23 26 29 36 32 29 25 20 17 21 19 13 10 5 5 9 13 13 24
136 133 122 113 99 76 61 47 38 30 48 58 41 346 209 196 179 175 174 155 16 28 24 8 19 24 25 36 30 33 24 20 13 8 1 355 353 349 347 348 357 1 358
140 136 130 127 118 107 102 71 48 40 8 33 36 33 40 8 325 197 185 182 326 354 9 1 4 29 15 21 45 39 16 11 1 356 351 346 348 345 340 336 335 341 344
144 142 143 142 139 138 133 127 114 79 54 25 20 8 11 11 358 309 285 173 274 251 320 330 314 236 54 30 15 19 5 358 354 350 341 334 328 328 331 330 330 329 328
150 153 155 156 153 153 157 156 150 145 72 349 340 337 328 335 345 317 298 314 310 304 316 272 262 270 185 93 25 359 343 335 336 334 330 323 326 330 325 318 315 315 317
164 165 167 168 166 161 160 172 187 204 216 235 232 250 259 263 284 279 284 289 293 320 302 291 245 268 238 305 336 341 323 319 322 322 318 316 323 321 316 309 310 311 311
174 168 172 171 169 172 174 185 200 219 227 235 232 233 249 243 239 245 257 274 284 259 276 268 250 265 263 312 315 323 319 311 313 314 313 314 313 312 313 311 310 308 307
162 167 172 173 173 177 192 197 208 211 222 239 243 242 239 238 238 240 243 247 249 276 278 262 281 204 291 305 314 313 308 307 308 304 304 304 305 303 304 307 308 309 308
166 167 170 176 179 184 197 207 209 207 232 240 251 246 246 241 241 240 242 238 237 251 260 269 271 285 292 296 296 295 292 299 295 296 298 298 294 292 293 294 296 299 302
171 178 178 178 183 198 212 226 243 251 249 251 245 253 255 254 253 250 244 244 243 244 256 271 278 283 287 287 289 286 289 287 288 288 290 292 291 288 288 290 291 294 294
180 184 185 191 197 210 229 238 248 252 264 266 264 260 260 256 255 251 250 250 247 248 255 267 277 281 280 285 287 287 283 280 279 280 282 283 283 282 282 283 285 287 290
186 193 204 208 210 220 231 244 256 262 264 268 269 268 270 266 265 263 258 256 254 254 257 262 276 283 281 277 276 278 280 279 276 275 274 274 274 276 279 279 278 279 281
204 207 215 224 236 248 259 266 270 275 274 276 274 269 269 264 264 265 260 258 261 262 262 258 258 274 278 281 277 276 278 271 281 284 278 271 273 274 273 271 270 270 272
199 223 225 233 249 263 270 277 276 280 277 278 275 273 270 268 266 262 260 257 254 252 255 254 250 256 272 277 271 278 279 283 282 283 284 276 272 275 274 273 269 268 267
207 199 236 252 273 275 279 278 275 266 264 269 274 276 275 271 270 268 264 253 241 238 247 251 254 249 256 269 272 275 279 284 291 288 274 272 277 277 278 274 273 271 272
241 265 274 277 271 272 270 270 269 271 269 265 263 267 267 264 261 263 263 266 269 270 268 268 267 260 256 248 265 277 280 278 281 283 284 279 282 278 278 273 270 268 268
243 257 260 260 264 265 268 271 271 269 269 266 265 266 261 265 265 265 270 271 269 267 266 263 263 261 260 263 262 269 274 278 279 280 268 271 274 277 281 279 276 273 271
251 255 261 266 266 269 272 274 273 272 267 266 267 264 267 266 268 268 266 262 265 267 265 264 264 267 267 262 260 260 262 271 276 274 277 287 283 281 284 279 275 274 273
260 266 265 260 260 266 268 266 268 268 266 264 264 262 260 260 264 264 258 262 263 267 267 272 270 258 256 261 270 266 269 271 278 280 277 276 279 284 288 270 266 271 268